Flag for Bulgaria Weather past 2 weeks in Plovdiv, Bulgaria

Now
64 °F

Mild.


Feels Like: 64 °F
Forecast: 61 / 83 °F
Wind: 5 mph from Northwest

Location: Plovdiv Airport

Current Time: Jul 2, 2015 at 8:44:15 AM

Latest Report: Jul 2, 2015 at 8:00 AM


Visibility: N/A

Pressure: 30.18 "Hg

Humidity: 78%

Dew point: 57 °F

Location of PlovdivLocation

Historic Weather in Plovdiv — Graph

°F

Plovdiv temperature yesterday

Maximum temperature yesterday: 81 °F (at 6:00 PM)
Minimum temperature yesterday: 63 °F (at 2:30 AM)
Average temperature yesterday: 68 °F

Past Weeks' High & Low Weather Summary

 TemperatureHumidityPressure
High86 °F (Jun 24, 5:30 PM)100% (Jun 18, 7:30 AM)30.18 "Hg (Jun 18, 7:30 AM)
Low52 °F (Jun 22, 5:30 AM)31% (Jun 24, 5:30 PM)29.77 "Hg (Jun 17, 3:30 PM)
Average67 °F67%29.94 "Hg
* Reported Jun 17 7:30 AM — Jul 2 7:00 AM, Plovdiv, Weather by CustomWeather, © 2015

Note: Actual official high and low records may vary slightly from our data, if they occured in-between our weather recording intervals... More about our weather records

Advertising

Plovdiv weather history for previous 24 hours

 ConditionsComfort  
Time TempWeatherWind HumidityBarometerVisibility
7:00 AM
Thu, Jul 2
63 °FMild.3 mph77%30.18 "HgN/A
6:30 AM63 °FPassing clouds.5 mph77%30.15 "HgN/A
6:00 AM61 °FCool.No wind83%30.15 "HgN/A
5:30 AM59 °FCool.3 mph88%30.15 "HgN/A
5:00 AM61 °FCool.7 mph83%30.15 "HgN/A
4:30 AM61 °FCool.No wind88%30.15 "HgN/A
4:00 AM61 °FCool.5 mph88%30.15 "HgN/A
3:30 AM61 °FCool.5 mph88%30.15 "HgN/A
3:00 AM61 °FCool.6 mph88%30.15 "HgN/A
2:30 AM63 °FMild.6 mph83%30.15 "HgN/A
2:00 AM64 °FPassing clouds.6 mph83%30.18 "HgN/A
1:30 AM66 °FOvercast.2 mph83%30.18 "HgN/A
1:00 AM66 °FOvercast.No wind83%30.18 "HgN/A
12:00 AM68 °FLight rain. Passing clouds.6 mph78%30.18 "HgN/A
11:30 PM
Wed, Jul 1
68 °FOvercast.6 mph78%30.18 "HgN/A
11:00 PM68 °FPassing clouds.3 mph78%30.18 "HgN/A
10:30 PM66 °FPassing clouds.5 mph78%30.15 "HgN/A
10:00 PM68 °FPassing clouds.10 mph73%30.15 "HgN/A
9:30 PM68 °FPassing clouds.10 mph78%30.15 "HgN/A
9:00 PM70 °FMild.13 mph73%30.12 "HgN/A
8:30 PM72 °FMild.14 mph69%30.12 "HgN/A
8:00 PM72 °FMild.13 mph69%30.12 "HgN/A
7:30 PM73 °FMild.16 mph65%30.12 "HgN/A
7:00 PM75 °FMild.20 mph57%30.12 "HgN/A
6:30 PM79 °FWarm.6 mph42%30.12 "HgN/A
6:00 PM81 °FPassing clouds.No wind42%30.12 "HgN/A
5:30 PM79 °FWarm.1 mph45%30.12 "HgN/A
5:00 PM79 °FWarm.3 mph42%30.12 "HgN/A
4:30 PM79 °FWarm.1 mph48%30.12 "HgN/A
4:00 PM77 °FWarm.3 mph51%30.12 "HgN/A
3:30 PM75 °FMild.6 mph61%30.12 "HgN/A
3:00 PM73 °FMild.5 mph61%30.12 "HgN/A
2:30 PM72 °FMild.7 mph69%30.15 "HgN/A
2:00 PM70 °FPartly sunny.6 mph83%30.15 "HgN/A
1:30 PM68 °FLight rain. Partly sunny.2 mph83%30.15 "HgN/A
1:00 PM66 °FRain. Overcast.5 mph94%30.15 "HgN/A
12:30 PM64 °FLots of rain. More clouds than sun.5 mph94%30.18 "Hg4 mi
12:00 PM64 °FRain showers. Mostly cloudy.3 mph94%30.18 "HgN/A
11:30 AM64 °FRain. More clouds than sun.3 mph88%30.18 "HgN/A
11:00 AM64 °FSprinkles. Mostly cloudy.3 mph94%30.18 "Hg4 mi
10:30 AM64 °FSprinkles. More clouds than sun.No wind88%30.15 "HgN/A
10:00 AM64 °FSprinkles. Overcast.1 mph88%30.15 "HgN/A
9:30 AM64 °FSprinkles. Overcast.No wind88%30.15 "HgN/A
9:00 AM64 °FSprinkles. Overcast.No wind94%30.15 "HgN/A
8:30 AM64 °FMild.No wind88%30.12 "HgN/A
8:00 AM64 °FMild.No wind94%30.12 "HgN/A
Weather by CustomWeather, © 2015

See weather overviewHow to use our weather pages